COSMOS 2436 (723)

Last updated on Wed Oct 22 2025 00:03:19 GMT+0000 (Coordinated Universal Time)

1 32395U 07065C 25293.99953652 .00000013 00000+0 00000+0 0 9991 2 32395 64.3236 200.0523 0017326 3.3203 331.9339 2.13100050138623
UTC large
Height (km)
Speed (km/s)
/
Latitude / Longitude
Inclination (degrees)
Orbital Period (minutes)
Azimuth
Elevation
Range (km)
Doppler Factor

Next 0 passes for location: London (51.5072 / 0.1276)

Sorry there are no passes over London.